Weather History for Glens Falls, NY

Change the Weather History Date:

Friday, November 23, 2012

  Actual Average Record
Temperature  
Mean Temperature 38 °F 34 °F  
Max Temperature 56 °F 43 °F 66 °F (1953)
Min Temperature 20 °F 25 °F 7 °F (1972)
Degree Days  
Heating Degree Days 27 31  
Month to date heating degree days 641 617  
Since 1 July heating degree days 1291 1472  
Cooling Degree Days 0 0  
Month to date cooling degree days 0 0  
Year to date cooling degree days 533 352  
Moisture  
Dew Point 31 °F    
Average Humidity 69    
Maximum Humidity 100    
Minimum Humidity 38    
Precipitation  
Precipitation 0.01 in 0.11 in 1.02 in (2011)
Month to date precipitation 0.46 2.54  
Year to date precipitation 31.37 35.24  
Sea Level Pressure  
Sea Level Pressure 29.84 in    
Wind  
Wind Speed 4 mph (SW)    
Max Wind Speed 15 mph    
Max Gust Speed 20 mph    
Visibility 9 miles    
Events Rain    
T = Trace of Precipitation, MM = Missing Value Source: NWS Daily Summary

Daily Weather History Graph

Daily Weather History Graph

Search for Another Location

Airport:

Trip Planner

Search our weather history database for the weather conditions in past years. The results will help you decide how hot, cold, wet, or windy it might be!

Date:

Astronomy

Nov. 23, 2012 Rise Set
Actual Time 6:58 AM EST 4:23 PM EST
Civil Twilight 6:26 AM EST 4:54 PM EST
Nautical Twilight 5:51 AM EST 5:29 PM EST
Astronomical Twilight 5:17 AM EST 6:03 PM EST
Moon 1:42 PM EST (11/23) 2:07 AM EST (11/23)
Length of Visible Light 10h 27m
Length of Day
9h 25m
Waxing Gibbous, 79% of the Moon is Illuminated
Nov 23
Waxing Gibbous
Nov 28
Full
Dec 6
Last Quarter
Dec 13
New
Dec 20
First Quarter

Hourly Weather History & Observations

Time (EST) Temp. Windchill Dew Point Humidity Pressure Visibility Wind Dir Wind Speed Gust Speed Precip Events Conditions
12:53 AM 25.0 °F - 23.0 °F 92% 30.09 in 6.0 mi Calm Calm - N/A   Clear
1:53 AM 24.1 °F - 21.0 °F 88% 30.08 in 9.0 mi Calm Calm - N/A   Clear
2:53 AM 23.0 °F - 21.9 °F 96% 30.07 in 9.0 mi Calm Calm - N/A   Clear
3:53 AM 21.9 °F - 19.9 °F 92% 30.05 in 9.0 mi Calm Calm - N/A   Clear
4:53 AM 21.0 °F - 19.0 °F 92% 30.04 in 10.0 mi Calm Calm - N/A   Clear
5:53 AM 19.9 °F - 19.0 °F 96% 30.02 in 9.0 mi Calm Calm - N/A   Clear
6:53 AM 21.0 °F - 19.9 °F 96% 30.00 in 7.0 mi Calm Calm - N/A   Clear
7:53 AM 25.0 °F - 23.0 °F 92% 29.98 in 8.0 mi Calm Calm - N/A   Clear
8:53 AM 32.0 °F - 30.0 °F 92% 29.96 in 6.0 mi Calm Calm - N/A   Clear
9:53 AM 39.9 °F 35.1 °F 34.0 °F 79% 29.93 in 7.0 mi South 6.9 mph - N/A   Clear
10:53 AM 39.9 °F 35.8 °F 33.1 °F 77% 29.89 in 8.0 mi South 5.8 mph - N/A   Clear
11:53 AM 45.0 °F 40.6 °F 34.0 °F 65% 29.83 in 9.0 mi South 8.1 mph - N/A   Clear
12:53 PM 53.1 °F - 33.1 °F 47% 29.77 in 10.0 mi SSW 6.9 mph - N/A   Clear
1:53 PM 55.0 °F - 30.9 °F 40% 29.72 in 10.0 mi SSW 9.2 mph 19.6 mph N/A   Clear
2:53 PM 55.9 °F - 30.9 °F 39% 29.70 in 10.0 mi SSW 11.5 mph 18.4 mph N/A   Mostly Cloudy
3:53 PM 54.0 °F - 30.0 °F 40% 29.70 in 10.0 mi SW 6.9 mph - N/A   Overcast
4:53 PM 51.1 °F - 33.1 °F 50% 29.72 in 9.0 mi WSW 5.8 mph - 0.00 in Rain Light Rain
5:53 PM 46.9 °F - 39.0 °F 74% 29.73 in 9.0 mi SW 4.6 mph - 0.00 in Rain Light Rain
6:53 PM 46.0 °F 44.8 °F 42.1 °F 86% 29.70 in 10.0 mi SW 3.5 mph - 0.00 in   Overcast
7:53 PM 46.9 °F - 43.0 °F 86% 29.68 in 10.0 mi SSW 3.5 mph - 0.01 in   Overcast
8:53 PM 46.0 °F - 44.1 °F 93% 29.66 in 8.0 mi Calm Calm - N/A   Overcast
9:53 PM 46.9 °F - 43.0 °F 86% 29.64 in 9.0 mi Calm Calm - N/A   Overcast
10:53 PM 46.0 °F 43.9 °F 42.1 °F 86% 29.63 in 10.0 mi West 4.6 mph - N/A   Overcast
11:53 PM 45.0 °F 41.8 °F 35.1 °F 68% 29.63 in 10.0 mi West 5.8 mph - N/A   Overcast